FW8502 Weather Reports


time (UTC)temp
F
wind
direction
speed
knots
gust
knots
rain 1hr
in
rain 24hr
in
rain mn
in
humidity
%
barometer
mb
20260504220037 82 130 7.8 15.6 0.00 0.00 0.00 65 1013.9
20260504214538 82 142 4.3 11.3 0.00 0.00 0.00 64 1013.8
20260504213040 82 146 7.0 13.9 0.00 0.00 0.00 63 1013.8
20260504211535 83 129 6.1 15.6 0.00 0.00 0.00 61 1014.0
20260504210046 84 121 4.3 12.2 0.00 0.00 0.00 56 1013.9
20260504204537 85 101 6.1 13.0 0.00 0.00 0.00 57 1014.0
20260504203037 86 163 4.3 10.4 0.00 0.00 0.00 56 1013.9
20260504201534 86 156 7.0 14.8 0.00 0.00 0.00 55 1013.9
20260504200038 86 98 9.6 14.8 0.00 0.00 0.00 54 1014.2
20260504194542 86 108 7.0 15.6 0.00 0.00 0.00 54 1014.3
20260504193044 87 100 7.8 15.6 0.00 0.00 0.00 54 1014.4
20260504191604 87 97 7.0 13.9 0.00 0.00 0.00 54 1014.9
20260504190037 85 111 6.1 14.8 0.00 0.00 0.00 55 1015.1
20260504184543 86 127 6.1 16.5 0.00 0.00 0.00 55 1015.2
20260504183038 86 64 7.8 17.4 0.00 0.00 0.00 55 1015.5
20260504181538 85 64 10.4 15.6 0.00 0.00 0.00 56 1015.6
20260504180037 85 130 7.8 16.5 0.00 0.00 0.00 57 1015.9
20260504174538 84 57 7.0 12.2 0.00 0.00 0.00 58 1016.0
20260504173038 84 145 8.7 13.0 0.00 0.00 0.00 55 1016.2
20260504171540 84 110 7.0 14.8 0.00 0.00 0.00 56 1016.5
20260504081542 69 96 1.7 5.2 0.00 0.01 0.00 85 1015.5
20260504044537 70 107 2.6 7.0 0.00 0.01 0.00 83 1017.4
20260504043040 70 118 3.5 7.8 0.00 0.01 0.00 83 1017.3
20260504041533 70 101 3.5 7.8 0.00 0.01 0.00 83 1017.3
20260504040035 70 107 3.5 8.7 0.00 0.01 0.00 83 1017.2
20260504034543 70 105 4.3 7.8 0.00 0.01 0.01 83 1017.4
20260504033050 70 80 2.6 5.2 0.00 0.01 0.01 83 1017.5
20260504031538 70 84 1.7 6.1 0.00 0.01 0.01 83 1017.6
20260504030040 70 142 2.6 6.1 0.00 0.01 0.01 83 1017.6
20260504024544 70 133 1.7 5.2 0.00 0.11 0.01 83 1017.6
20260504023038 70 129 0.9 7.0 0.00 0.11 0.01 83 1017.8
20260504021537 70 153 1.7 4.3 0.00 0.11 0.01 83 1017.6
20260504020037 70 142 0.9 6.1 0.00 0.11 0.01 83 1017.5
20260504014539 70 161 1.7 8.7 0.00 0.14 0.01 83 1017.4
20260504013039 71 144 3.5 7.0 0.00 0.14 0.01 83 1017.2
20260504011534 71 74 1.7 5.2 0.00 0.14 0.01 83 1017.2
20260504010035 71 101 2.6 6.1 0.00 0.14 0.01 83 1017.1
20260504004539 71 108 0.9 7.0 0.00 0.16 0.01 83 1016.8
20260504003042 71 136 2.6 6.1 0.00 0.16 0.01 83 1016.8
20260504001537 71 99 0.9 6.1 0.00 0.16 0.01 83 1016.6
20260504000047 71 113 3.5 7.0 0.00 0.16 0.01 83 1016.3
20260503234535 71 96 2.6 7.0 0.00 0.24 0.01 83 1016.3
20260503233040 71 101 4.3 7.0 0.00 0.24 0.01 82 1016.3
20260503231538 71 117 4.3 8.7 0.00 0.24 0.01 82 1016.1
20260503230035 71 124 6.1 9.6 0.00 0.24 0.01 82 1016.2
20260503224537 72 91 5.2 10.4 0.00 0.45 0.01 82 1016.1
20260503223036 72 103 5.2 10.4 0.00 0.45 0.01 81 1016.0
20260503221539 72 94 5.2 12.2 0.00 0.45 0.01 81 1016.0